This demonstration page uses our WeatherBlox Daily Observations layout. Learn more.

Left ArrowRight Arrow

Hourly Observations for July 24, 2021

Temp ( °F °C ) Dew Point ( °F °C ) Humidity (%) Winds ( mph kmh ) Pressure ( in mb ) Visibility ( mi km ) Precip ( " mm )
12:15 am 00:15 Clear 77 25.1 64 17.6 63 63 S 8 13 29.84 1010 10 16 N/A
12:35 am 00:35 Clear 76 24.7 64 17.5 64 64 S 8 13 29.84 1011 10 16 N/A
12:55 am 00:55 Clear 76 24.5 64 17.5 65 65 S 8 13 29.83 1010 10 16 N/A
1:15 am 01:15 Clear 76 24.4 63 17.4 65 65 S 7 11 29.84 1010 10 16 N/A
1:35 am 01:35 Clear 76 24.2 63 17.4 66 66 S 7 11 29.84 1010 10 16 N/A
1:55 am 01:55 Clear 74 23.6 64 17.5 69 69 S 6 9 29.84 1011 10 16 N/A
2:15 am 02:15 Clear 74 23.6 63 17.3 68 68 S 5 7 29.84 1011 10 16 N/A
2:35 am 02:35 Clear 74 23.3 63 17.3 69 69 S 7 11 29.84 1011 10 16 N/A
2:55 am 02:55 Partly Cloudy 73 23 63 17.2 70 70 SSW 3 6 29.86 1011 10 16 N/A
3:15 am 03:15 Partly Cloudy 74 23.4 63 17 67 67 N N/A 29.85 1011 10 16 N/A
3:35 am 03:35 Clear 72 22.3 63 17 72 72 N N/A 29.85 1011 10 16 N/A
3:55 am 03:55 Clear 72 22.4 62 16.7 70 70 N N/A 29.85 1011 10 16 N/A
4:15 am 04:15 Clear 72 22.2 62 16.6 71 71 N N/A 29.85 1011 10 16 N/A
4:35 am 04:35 Clear 69 20.5 62 16.8 79 79 N N/A 29.87 1011 10 16 N/A
4:55 am 04:55 Mostly Cloudy 71 21.5 62 16.9 75 75 N N/A 29.86 1011 10 16 N/A
5:15 am 05:15 Cloudy 70 21.3 64 17.8 81 81 NE 6 9 29.85 1011 10 16 N/A
5:35 am 05:35 Cloudy 75 23.7 62 16.4 64 64 S 3 6 29.82 1010 10 16 N/A
5:55 am 05:55 Cloudy 75 24 62 16.5 63 63 N N/A 29.83 1010 10 16 N/A
6:15 am 06:15 Partly Cloudy 75 23.7 62 16.7 65 65 N N/A 29.83 1010 10 16 N/A
6:35 am 06:35 Sunny 73 22.6 63 17.3 72 72 NW 7 11 29.85 1011 10 16 N/A
6:55 am 06:55 Sunny 72 22.3 63 17.2 73 73 W 3 6 29.85 1011 10 16 N/A
7:15 am 07:15 Sunny 73 22.8 63 17.1 70 70 W 5 7 29.86 1011 10 16 N/A
7:35 am 07:35 Sunny 73 23 63 17 69 69 N N/A 29.87 1011 10 16 N/A
7:55 am 07:55 Sunny 74 23.2 64 17.6 71 71 N N/A 29.87 1012 10 16 N/A
8:15 am 08:15 Sunny 74 23.6 64 17.5 69 69 N N/A 29.87 1012 10 16 N/A
8:35 am 08:35 Sunny 74 23.6 64 18 71 71 SW 3 6 29.88 1012 10 16 N/A
8:55 am 08:55 Partly Cloudy 74 23.6 64 17.9 70 70 W 3 6 29.88 1012 10 16 N/A
9:15 am 09:15 Mostly Cloudy 76 24.3 65 18.4 70 70 W 5 7 29.89 1012 10 16 N/A
9:35 am 09:35 Partly Cloudy 76 24.5 66 18.7 70 70 WNW 5 7 29.89 1012 10 16 N/A
9:55 am 09:55 Partly Cloudy 79 26 68 20 70 70 NNW 3 6 29.89 1012 10 16 N/A
10:15 am 10:15 Partly Cloudy 78 25.8 67 19.5 68 68 N 3 6 29.89 1012 10 16 N/A
10:35 am 10:35 Mostly Cloudy 78 25.5 68 20.2 73 73 N N/A 29.91 1013 10 16 N/A
10:55 am 10:55 Partly Cloudy 79 26.2 69 20.5 71 71 NNE 3 6 29.90 1013 10 16 N/A
11:15 am 11:15 Mostly Cloudy 79 26.2 69 20.8 72 72 NNE 5 7 29.90 1013 10 16 N/A
11:35 am 11:35 Mostly Cloudy 80 26.7 69 20.7 70 70 NE 6 9 29.90 1012 10 16 N/A
11:55 am 11:55 Mostly Cloudy 83 28.5 70 20.9 63 63 NE 9 15 29.89 1012 10 16 N/A
12:15 pm 12:15 Partly Cloudy 85 29.2 70 21.1 62 62 NE 9 15 29.89 1012 10 16 N/A
12:35 pm 12:35 Sunny 84 29.1 70 20.9 61 61 NE 7 11 29.89 1012 10 16 N/A
12:55 pm 12:55 Partly Cloudy 84 29 69 20.8 61 61 NE 10 17 29.90 1012 10 16 N/A
1:15 pm 13:15 Partly Cloudy 86 29.8 71 21.4 61 61 NE 10 17 29.88 1012 10 16 N/A
1:35 pm 13:35 Sunny 87 30.6 70 20.9 56 56 ENE 14 22 29.87 1012 10 16 N/A
1:50 pm 13:50 Sunny 87 30.5 69 20.7 56 56 ENE 13 20 29.88 1012 10 16 N/A
2:15 pm 14:15 Sunny 87 30.8 69 20.5 54 54 ENE 13 20 29.87 1012 10 16 N/A
2:35 pm 14:35 Sunny 89 31.4 69 20.3 52 52 ENE 14 22 29.88 1012 10 16 N/A
2:55 pm 14:55 Sunny 89 31.8 68 19.9 49 49 E 14 22 29.87 1012 10 16 N/A
3:15 pm 15:15 Sunny 89 31.5 68 19.8 50 50 ENE 16 26 29.88 1012 10 16 N/A
3:35 pm 15:35 Sunny 88 31.3 68 19.9 51 51 E 15 24 29.88 1012 10 16 N/A
3:55 pm 15:55 Sunny 89 31.4 68 20.2 51 51 E 13 20 29.88 1012 10 16 N/A
4:15 pm 16:15 Partly Cloudy 89 31.4 69 20.4 52 52 E 13 20 29.88 1012 10 16 N/A
4:35 pm 16:35 Mostly Cloudy 87 30.8 68 20.2 53 53 E 13 20 29.88 1012 10 16 N/A
4:55 pm 16:55 Mostly Cloudy 89 31.5 69 20.7 53 53 E 13 20 29.88 1012 10 16 N/A
5:15 pm 17:15 Mostly Cloudy 88 30.9 69 20.3 53 53 E 10 17 29.87 1012 10 16 N/A
5:35 pm 17:35 Cloudy 87 30.6 68 20.1 53 53 E 12 19 29.87 1012 10 16 N/A
5:55 pm 17:55 Partly Cloudy 86 30.1 69 20.7 57 57 E 10 17 29.88 1012 10 16 N/A
6:15 pm 18:15 Sunny 87 30.3 69 20.8 57 57 E 10 17 29.88 1012 10 16 N/A
6:35 pm 18:35 Partly Cloudy 86 29.8 69 20.7 58 58 E 9 15 29.87 1012 10 16 N/A
6:55 pm 18:55 Partly Cloudy 85 29.3 70 20.9 61 61 E 8 13 29.87 1012 10 16 N/A
7:15 pm 19:15 Mostly Cloudy 84 29.1 70 21 62 62 E 9 15 29.88 1012 10 16 N/A
7:35 pm 19:35 Mostly Cloudy 84 28.7 69 20.7 62 62 E 9 15 29.88 1012 10 16 N/A
7:55 pm 19:55 Partly Cloudy 83 28.3 70 21 65 65 E 7 11 29.89 1012 10 16 N/A
8:15 pm 20:15 Mostly Cloudy 82 28 71 21.4 67 67 E 7 11 29.90 1012 10 16 N/A
8:35 pm 20:35 Cloudy 82 27.5 70 21.2 69 69 E 8 13 29.90 1012 10 16 N/A
8:55 pm 20:55 Cloudy 81 27 70 21.1 70 70 E 7 11 29.90 1013 10 16 N/A
9:15 pm 21:15 Cloudy 80 26.4 71 21.4 74 74 E 6 9 29.92 1013 10 16 N/A
9:35 pm 21:35 Partly Cloudy 78 25.7 71 21.5 78 78 E 5 7 29.92 1013 10 16 N/A
9:55 pm 21:55 Partly Cloudy 77 25.2 71 21.6 81 81 E 5 7 29.93 1013 10 16 N/A
10:15 pm 22:15 Mostly Cloudy 79 26 72 22.1 79 79 ESE 7 11 29.94 1014 10 16 N/A
10:35 pm 22:35 Mostly Cloudy 78 25.8 72 22 80 80 E 8 13 29.94 1014 10 16 N/A
10:55 pm 22:55 Mostly Cloudy 78 25.7 72 22 80 80 ESE 10 17 29.95 1014 10 16 N/A
11:15 pm 23:15 Mostly Cloudy 77 25.2 69 20.8 77 77 E 8 13 29.96 1014 10 16 N/A
11:35 pm 23:35 Mostly Cloudy 77 25 69 20.3 75 75 E 9 15 29.95 1014 10 16 N/A
11:55 pm 23:55 Mostly Cloudy 76 24.2 69 20.5 80 80 ENE 9 15 29.96 1014 10 16 N/A

Powered by AerisWeather